VLG80VV LEBB-LEZL

Flight info

Callsign VLG80VV
Flight time 1h 12m
Altitude 33000
Route AMTOS L14 NEA DCT NONTU DCT ORBIS DCT DISKO DCT TLD DCT DOPEN DCT MONTO DCT MOLIN DCT HIJ
Aircraft A321/M-SDE3FGHIRWY/LB1

Departure

Time 2026-05-08 15:18
Airport Bilbao Airport (LEBB)

Arrival

Time 2026-05-08 16:30
Airport Seville Airport (LEZL)
Time Latitude Longitude Altitude Speed Heading
2026-05-08 14:51 43.30480 -2.90810 132 ft 0 kts 26°
2026-05-08 15:08 43.30468 -2.90818 132 ft 4 kts 26°
2026-05-08 15:08 43.30445 -2.90834 132 ft 2 kts 27°
2026-05-08 15:09 43.30425 -2.90851 132 ft 4 kts 51°
2026-05-08 15:09 43.30414 -2.90883 132 ft 4 kts 85°
2026-05-08 15:09 43.30414 -2.90896 132 ft 0 kts 91°
2026-05-08 15:11 43.30414 -2.90895 132 ft 1 kts 91°
2026-05-08 15:11 43.30413 -2.90847 132 ft 7 kts 91°
2026-05-08 15:11 43.30401 -2.90772 132 ft 10 kts 115°
2026-05-08 15:11 43.30366 -2.90678 132 ft 11 kts 116°
2026-05-08 15:12 43.30325 -2.90595 132 ft 11 kts 140°
2026-05-08 15:12 43.30285 -2.90557 132 ft 10 kts 146°
2026-05-08 15:12 43.30199 -2.90541 132 ft 11 kts 210°
2026-05-08 15:12 43.30137 -2.90580 132 ft 9 kts 178°
2026-05-08 15:13 43.30095 -2.90513 132 ft 11 kts 116°
2026-05-08 15:13 43.30070 -2.90445 132 ft 13 kts 116°
2026-05-08 15:13 43.30029 -2.90332 132 ft 14 kts 117°
2026-05-08 15:13 43.29983 -2.90207 132 ft 15 kts 117°
2026-05-08 15:14 43.29935 -2.90074 132 ft 15 kts 116°
2026-05-08 15:14 43.29904 -2.89990 132 ft 1 kts 116°
2026-05-08 15:14 43.29902 -2.89985 132 ft 0 kts 116°
2026-05-08 15:15 43.29902 -2.89984 132 ft 1 kts 116°
2026-05-08 15:15 43.29879 -2.89921 132 ft 17 kts 116°
2026-05-08 15:15 43.29820 -2.89762 132 ft 19 kts 117°
2026-05-08 15:15 43.29763 -2.89611 132 ft 13 kts 127°
2026-05-08 15:16 43.29688 -2.89627 132 ft 13 kts 229°
2026-05-08 15:16 43.29632 -2.89730 125 ft 8 kts 243°
2026-05-08 15:16 43.29644 -2.89789 127 ft 0 kts 296°
2026-05-08 15:17 43.29646 -2.89795 126 ft 11 kts 296°
2026-05-08 15:17 43.29808 -2.90237 125 ft 89 kts 296°
2026-05-08 15:17 43.30187 -2.91270 132 ft 149 kts 297°
2026-05-08 15:17 43.30690 -2.92591 676 ft 155 kts 297°
2026-05-08 15:18 43.31179 -2.93888 1375 ft 156 kts 296°
2026-05-08 15:18 43.31691 -2.95286 1751 ft 171 kts 294°
2026-05-08 15:18 43.32282 -2.96801 1994 ft 194 kts 303°
2026-05-08 15:18 43.33232 -2.98281 2196 ft 219 kts 311°
2026-05-08 15:19 43.34391 -2.99837 2455 ft 246 kts 314°
2026-05-08 15:19 43.35693 -3.01506 2973 ft 262 kts 315°
2026-05-08 15:19 43.37047 -3.03234 3750 ft 268 kts 315°
2026-05-08 15:19 43.38393 -3.05048 4567 ft 272 kts 306°
2026-05-08 15:20 43.39222 -3.07337 5359 ft 267 kts 278°
2026-05-08 15:20 43.39209 -3.09831 6141 ft 264 kts 252°
2026-05-08 15:20 43.38391 -3.12070 6907 ft 263 kts 227°
2026-05-08 15:20 43.36953 -3.13596 7718 ft 263 kts 204°
2026-05-08 15:21 43.35228 -3.14450 8500 ft 265 kts 195°
2026-05-08 15:21 43.33422 -3.15023 9306 ft 267 kts 191°
2026-05-08 15:21 43.31592 -3.15463 10058 ft 271 kts 189°
2026-05-08 15:21 43.29653 -3.15880 10312 ft 293 kts 188°
2026-05-08 15:22 43.27551 -3.16308 10526 ft 315 kts 188°
2026-05-08 15:22 43.25339 -3.16757 11051 ft 324 kts 188°
2026-05-08 15:22 43.23088 -3.17218 11766 ft 329 kts 189°
2026-05-08 15:22 43.20811 -3.17692 12562 ft 332 kts 189°
2026-05-08 15:23 43.18541 -3.18170 13324 ft 335 kts 189°
2026-05-08 15:23 43.16222 -3.18659 14002 ft 337 kts 189°
2026-05-08 15:23 43.13890 -3.19150 14659 ft 340 kts 189°
2026-05-08 15:23 43.11540 -3.19647 15308 ft 342 kts 189°
2026-05-08 15:24 43.09199 -3.20145 15935 ft 345 kts 189°
2026-05-08 15:24 43.06810 -3.20653 16585 ft 348 kts 188°
2026-05-08 15:24 43.04401 -3.21165 17222 ft 351 kts 188°
2026-05-08 15:24 43.01980 -3.21717 17816 ft 355 kts 192°
2026-05-08 15:25 42.99618 -3.22776 18388 ft 359 kts 203°
2026-05-08 15:25 42.97456 -3.24449 18909 ft 364 kts 212°
2026-05-08 15:25 42.95357 -3.26423 19444 ft 367 kts 212°
2026-05-08 15:25 42.93235 -3.28403 19992 ft 370 kts 212°
2026-05-08 15:26 42.91089 -3.30394 20521 ft 374 kts 212°
2026-05-08 15:26 42.88932 -3.32391 21072 ft 377 kts 212°
2026-05-08 15:26 42.86750 -3.34411 21618 ft 380 kts 212°
2026-05-08 15:26 42.84557 -3.36439 22149 ft 383 kts 212°
2026-05-08 15:27 42.82334 -3.38493 22674 ft 386 kts 212°
2026-05-08 15:27 42.80123 -3.40529 23173 ft 389 kts 212°
2026-05-08 15:27 42.77865 -3.42608 23630 ft 392 kts 212°
2026-05-08 15:27 42.75597 -3.44697 24047 ft 395 kts 212°
2026-05-08 15:28 42.73302 -3.46808 24444 ft 398 kts 212°
2026-05-08 15:28 42.71022 -3.48903 24844 ft 400 kts 212°
2026-05-08 15:28 42.68698 -3.51035 25275 ft 402 kts 212°
2026-05-08 15:28 42.66394 -3.53151 25677 ft 404 kts 213°
2026-05-08 15:29 42.64060 -3.55298 26091 ft 406 kts 213°
2026-05-08 15:29 42.61716 -3.57454 26506 ft 408 kts 213°
2026-05-08 15:29 42.59352 -3.59628 26910 ft 410 kts 213°
2026-05-08 15:29 42.56978 -3.61806 27318 ft 411 kts 213°
2026-05-08 15:30 42.54625 -3.63962 27718 ft 412 kts 214°
2026-05-08 15:30 42.52251 -3.66134 28277 ft 410 kts 215°
2026-05-08 15:30 42.49883 -3.68298 28714 ft 411 kts 215°
2026-05-08 15:30 42.47507 -3.70465 29122 ft 412 kts 215°
2026-05-08 15:31 42.45119 -3.72639 29484 ft 414 kts 215°
2026-05-08 15:31 42.42712 -3.74824 29859 ft 416 kts 216°
2026-05-08 15:31 42.40334 -3.76982 30161 ft 418 kts 216°
2026-05-08 15:31 42.37915 -3.79180 30459 ft 420 kts 216°
2026-05-08 15:32 42.35478 -3.81393 30781 ft 421 kts 216°
2026-05-08 15:32 42.33045 -3.83600 31205 ft 419 kts 216°
2026-05-08 15:32 42.30627 -3.85792 31651 ft 417 kts 216°
2026-05-08 15:32 42.28204 -3.87986 32046 ft 417 kts 216°
2026-05-08 15:33 42.25826 -3.90137 32412 ft 416 kts 216°
2026-05-08 15:33 42.23407 -3.92325 32777 ft 417 kts 216°
2026-05-08 15:33 42.20995 -3.94507 32891 ft 414 kts 216°
2026-05-08 15:33 42.18619 -3.96649 32902 ft 408 kts 216°
2026-05-08 15:34 42.13950 -4.00856 32900 ft 405 kts 216°
2026-05-08 15:34 42.09268 -4.05066 32901 ft 402 kts 216°
2026-05-08 15:35 42.04551 -4.09135 32902 ft 404 kts 210°
2026-05-08 15:35 41.99176 -4.11332 32901 ft 413 kts 190°
2026-05-08 15:36 41.93417 -4.11986 32900 ft 415 kts 189°
2026-05-08 15:36 41.87646 -4.12634 32896 ft 415 kts 190°
2026-05-08 15:37 41.81930 -4.13279 32912 ft 414 kts 190°
2026-05-08 15:37 41.76192 -4.13928 32911 ft 414 kts 190°
2026-05-08 15:38 41.70451 -4.14580 32912 ft 413 kts 190°
2026-05-08 15:38 41.64701 -4.15235 32912 ft 413 kts 190°
2026-05-08 15:39 41.59008 -4.15876 32913 ft 412 kts 190°
2026-05-08 15:39 41.53303 -4.16517 32914 ft 411 kts 190°
2026-05-08 15:40 41.47602 -4.17162 32892 ft 410 kts 191°
2026-05-08 15:40 41.41940 -4.17797 32910 ft 409 kts 191°
2026-05-08 15:41 41.36246 -4.18432 32915 ft 409 kts 191°
2026-05-08 15:41 41.30611 -4.19066 32913 ft 408 kts 191°
2026-05-08 15:42 41.24949 -4.19706 32912 ft 407 kts 191°
2026-05-08 15:42 41.19296 -4.20346 32915 ft 407 kts 191°
2026-05-08 15:43 41.13651 -4.20978 32921 ft 406 kts 191°
2026-05-08 15:43 41.08049 -4.21591 32919 ft 406 kts 191°
2026-05-08 15:44 41.02414 -4.22217 32911 ft 405 kts 191°
2026-05-08 15:44 40.96787 -4.22843 32925 ft 404 kts 191°
2026-05-08 15:45 40.91211 -4.23454 32937 ft 403 kts 191°
2026-05-08 15:45 40.85606 -4.24075 32934 ft 403 kts 191°
2026-05-08 15:46 40.80054 -4.24705 32922 ft 402 kts 191°
2026-05-08 15:46 40.74466 -4.25320 32927 ft 402 kts 191°
2026-05-08 15:47 40.68921 -4.25928 32929 ft 401 kts 191°
2026-05-08 15:47 40.63339 -4.26536 32931 ft 401 kts 191°
2026-05-08 15:48 40.55007 -4.27442 32923 ft 401 kts 191°
2026-05-08 15:49 40.49443 -4.28046 32920 ft 400 kts 191°
2026-05-08 15:49 40.43881 -4.28653 32923 ft 401 kts 191°
2026-05-08 15:50 40.38343 -4.29257 32891 ft 400 kts 192°
2026-05-08 15:50 40.32784 -4.29862 32913 ft 399 kts 192°
2026-05-08 15:51 40.27283 -4.30456 32915 ft 398 kts 192°
2026-05-08 15:51 40.21762 -4.31049 32908 ft 397 kts 192°
2026-05-08 15:52 40.16269 -4.31639 32888 ft 397 kts 192°
2026-05-08 15:52 40.10760 -4.32235 32894 ft 396 kts 192°
2026-05-08 15:53 40.05262 -4.32837 32897 ft 396 kts 192°
2026-05-08 15:53 39.99791 -4.33426 32894 ft 396 kts 192°
2026-05-08 15:54 39.94320 -4.34141 32869 ft 392 kts 196°
2026-05-08 15:54 39.88984 -4.35302 32895 ft 389 kts 198°
2026-05-08 15:55 39.83659 -4.36573 32904 ft 388 kts 198°
2026-05-08 15:55 39.75697 -4.38338 32903 ft 387 kts 197°
2026-05-08 15:56 39.70373 -4.39470 32893 ft 387 kts 198°
2026-05-08 15:56 39.65092 -4.40589 32901 ft 384 kts 198°
2026-05-08 15:57 39.59812 -4.41704 32908 ft 383 kts 198°
2026-05-08 15:57 39.54553 -4.42819 32908 ft 382 kts 198°
2026-05-08 15:58 39.49334 -4.43932 32885 ft 382 kts 198°
2026-05-08 15:58 39.44078 -4.45050 32916 ft 380 kts 198°
2026-05-08 15:59 39.38892 -4.46153 32916 ft 378 kts 198°
2026-05-08 15:59 39.33707 -4.47259 32916 ft 377 kts 198°
2026-05-08 16:00 39.28564 -4.48345 32910 ft 376 kts 198°
2026-05-08 16:00 39.23431 -4.49552 32889 ft 368 kts 205°
2026-05-08 16:01 39.19670 -4.51814 32900 ft 353 kts 219°
2026-05-08 16:01 39.15583 -4.55317 32901 ft 352 kts 219°
2026-05-08 16:02 39.11484 -4.58810 32916 ft 352 kts 218°
2026-05-08 16:02 39.07419 -4.62271 32908 ft 352 kts 218°
2026-05-08 16:03 39.03315 -4.65754 32904 ft 352 kts 218°
2026-05-08 16:03 38.99250 -4.69205 32889 ft 351 kts 219°
2026-05-08 16:04 38.95175 -4.72655 32900 ft 349 kts 219°
2026-05-08 16:04 38.91151 -4.76063 32902 ft 348 kts 219°
2026-05-08 16:05 38.87106 -4.79488 32901 ft 347 kts 219°
2026-05-08 16:05 38.83061 -4.82908 32897 ft 347 kts 219°
2026-05-08 16:06 38.81040 -4.84610 32663 ft 347 kts 219°
2026-05-08 16:06 38.79041 -4.86293 32385 ft 348 kts 219°
2026-05-08 16:06 38.77009 -4.88003 32131 ft 349 kts 218°
2026-05-08 16:06 38.74975 -4.89714 31871 ft 350 kts 218°
2026-05-08 16:07 38.72931 -4.91436 31614 ft 352 kts 218°
2026-05-08 16:07 38.70905 -4.93142 31363 ft 352 kts 218°
2026-05-08 16:07 38.68852 -4.94867 31112 ft 353 kts 218°
2026-05-08 16:07 38.66791 -4.96596 30888 ft 352 kts 218°
2026-05-08 16:08 38.64738 -4.98312 30641 ft 352 kts 217°
2026-05-08 16:08 38.62683 -5.00032 30400 ft 352 kts 217°
2026-05-08 16:08 38.60652 -5.01734 30161 ft 353 kts 217°
2026-05-08 16:08 38.58596 -5.03456 29916 ft 353 kts 217°
2026-05-08 16:09 38.56533 -5.05181 29627 ft 354 kts 217°
2026-05-08 16:09 38.54480 -5.06896 29310 ft 348 kts 217°
2026-05-08 16:09 38.52468 -5.08575 28825 ft 343 kts 217°
2026-05-08 16:09 38.50420 -5.10116 28325 ft 342 kts 210°
2026-05-08 16:10 38.48229 -5.11239 27815 ft 342 kts 207°
2026-05-08 16:10 38.46016 -5.12322 27306 ft 339 kts 207°
2026-05-08 16:10 38.43816 -5.13396 26815 ft 337 kts 206°
2026-05-08 16:10 38.41627 -5.14464 26320 ft 335 kts 206°
2026-05-08 16:11 38.39441 -5.15533 25855 ft 334 kts 206°
2026-05-08 16:11 38.37275 -5.16595 25382 ft 333 kts 206°
2026-05-08 16:11 38.35141 -5.17643 24929 ft 332 kts 206°
2026-05-08 16:11 38.32988 -5.18698 24488 ft 331 kts 205°
2026-05-08 16:12 38.30834 -5.19753 23963 ft 330 kts 205°
2026-05-08 16:12 38.28707 -5.20791 23100 ft 323 kts 205°
2026-05-08 16:12 38.26627 -5.21806 22178 ft 316 kts 205°
2026-05-08 16:12 38.24602 -5.22793 21320 ft 308 kts 205°
2026-05-08 16:13 38.22628 -5.23751 20509 ft 300 kts 205°
2026-05-08 16:13 38.20696 -5.24689 19719 ft 295 kts 205°
2026-05-08 16:13 38.18807 -5.25607 18981 ft 293 kts 205°
2026-05-08 16:13 38.16904 -5.26536 18250 ft 291 kts 205°
2026-05-08 16:14 38.15021 -5.27456 17435 ft 289 kts 205°
2026-05-08 16:14 38.13147 -5.28370 16637 ft 287 kts 205°
2026-05-08 16:14 38.11289 -5.29274 15850 ft 285 kts 204°
2026-05-08 16:14 38.09443 -5.30173 15119 ft 283 kts 204°
2026-05-08 16:15 38.07611 -5.31064 14392 ft 281 kts 204°
2026-05-08 16:15 38.05803 -5.31940 13706 ft 280 kts 204°
2026-05-08 16:15 38.03987 -5.32820 13203 ft 279 kts 204°
2026-05-08 16:15 38.02174 -5.33699 12829 ft 279 kts 203°
2026-05-08 16:16 38.00367 -5.34575 12450 ft 278 kts 203°
2026-05-08 16:16 37.98555 -5.35454 12085 ft 278 kts 202°
2026-05-08 16:16 37.96747 -5.36329 11716 ft 278 kts 202°
2026-05-08 16:16 37.94951 -5.37198 11358 ft 279 kts 202°
2026-05-08 16:17 37.93136 -5.38077 10993 ft 278 kts 201°
2026-05-08 16:17 37.91333 -5.38949 10627 ft 276 kts 201°
2026-05-08 16:17 37.89535 -5.39818 10271 ft 276 kts 201°
2026-05-08 16:17 37.87785 -5.40665 10156 ft 271 kts 201°
2026-05-08 16:18 37.86013 -5.41523 10055 ft 272 kts 201°
2026-05-08 16:18 37.84244 -5.42378 9937 ft 272 kts 200°
2026-05-08 16:18 37.82475 -5.43231 9747 ft 273 kts 200°
2026-05-08 16:18 37.80695 -5.44086 9333 ft 273 kts 200°
2026-05-08 16:19 37.78918 -5.44938 8942 ft 273 kts 200°
2026-05-08 16:19 37.77140 -5.45792 8510 ft 273 kts 200°
2026-05-08 16:19 37.75378 -5.46639 8236 ft 268 kts 200°
2026-05-08 16:19 37.73653 -5.47466 7856 ft 267 kts 200°
2026-05-08 16:20 37.71920 -5.48296 7493 ft 266 kts 200°
2026-05-08 16:20 37.70179 -5.49131 7087 ft 267 kts 201°
2026-05-08 16:20 37.68452 -5.49961 6729 ft 265 kts 200°
2026-05-08 16:20 37.66724 -5.50793 6312 ft 266 kts 201°
2026-05-08 16:21 37.65108 -5.51834 6030 ft 262 kts 214°
2026-05-08 16:21 37.63736 -5.53326 5739 ft 258 kts 221°
2026-05-08 16:21 37.62417 -5.54846 5509 ft 255 kts 221°
2026-05-08 16:21 37.61096 -5.56355 5280 ft 256 kts 220°
2026-05-08 16:22 37.59775 -5.57861 5067 ft 256 kts 221°
2026-05-08 16:22 37.58454 -5.59368 4849 ft 254 kts 220°
2026-05-08 16:22 37.57145 -5.60859 4626 ft 254 kts 221°
2026-05-08 16:22 37.55850 -5.62336 4407 ft 254 kts 221°
2026-05-08 16:23 37.54498 -5.63766 4162 ft 253 kts 210°
2026-05-08 16:23 37.52818 -5.64262 3909 ft 253 kts 175°
2026-05-08 16:23 37.51188 -5.63413 3685 ft 260 kts 149°
2026-05-08 16:23 37.49681 -5.62130 3438 ft 261 kts 150°
2026-05-08 16:24 37.48114 -5.60982 3189 ft 259 kts 157°
2026-05-08 16:24 37.46455 -5.60170 3008 ft 251 kts 171°
2026-05-08 16:24 37.44800 -5.60175 2913 ft 235 kts 195°
2026-05-08 16:24 37.43364 -5.61005 2814 ft 224 kts 218°
2026-05-08 16:25 37.42350 -5.62433 2720 ft 214 kts 239°
2026-05-08 16:25 37.41873 -5.64198 2615 ft 216 kts 261°
2026-05-08 16:25 37.41837 -5.66090 2519 ft 217 kts 266°
2026-05-08 16:25 37.41840 -5.67931 2441 ft 208 kts 267°
2026-05-08 16:26 37.41839 -5.69734 2276 ft 200 kts 266°
2026-05-08 16:26 37.41838 -5.71407 2147 ft 182 kts 265°
2026-05-08 16:26 37.41836 -5.72950 2012 ft 171 kts 264°
2026-05-08 16:26 37.41834 -5.74388 1880 ft 158 kts 264°
2026-05-08 16:27 37.41830 -5.75736 1813 ft 152 kts 265°
2026-05-08 16:27 37.41827 -5.77044 1716 ft 146 kts 264°
2026-05-08 16:27 37.41824 -5.78306 1518 ft 142 kts 262°
2026-05-08 16:27 37.41821 -5.79522 1344 ft 140 kts 261°
2026-05-08 16:28 37.41818 -5.80735 1165 ft 136 kts 264°
2026-05-08 16:28 37.41815 -5.81920 988 ft 134 kts 263°
2026-05-08 16:28 37.41812 -5.83103 820 ft 135 kts 264°
2026-05-08 16:28 37.41809 -5.84271 619 ft 136 kts 264°
2026-05-08 16:29 37.41803 -5.85447 439 ft 134 kts 264°
2026-05-08 16:29 37.41808 -5.86647 282 ft 139 kts 266°
2026-05-08 16:29 37.41800 -5.87865 128 ft 136 kts 267°
2026-05-08 16:29 37.41795 -5.88914 104 ft 99 kts 269°
2026-05-08 16:30 37.41795 -5.89553 99 ft 46 kts 269°
2026-05-08 16:30 37.41808 -5.89771 98 ft 16 kts 307°
2026-05-08 16:30 37.41905 -5.89833 97 ft 14 kts 337°
2026-05-08 16:30 37.41996 -5.89880 96 ft 14 kts 338°
2026-05-08 16:31 37.42075 -5.89922 96 ft 12 kts 337°
2026-05-08 16:31 37.42141 -5.89911 94 ft 11 kts 41°
2026-05-08 16:31 37.42198 -5.89840 94 ft 12 kts 44°
2026-05-08 16:31 37.42251 -5.89775 94 ft 7 kts 42°
2026-05-08 16:32 37.42291 -5.89742 95 ft 6 kts 23°
2026-05-08 16:32 37.42316 -5.89758 96 ft 5 kts 311°
2026-05-08 16:32 37.42338 -5.89786 94 ft 3 kts 314°
2026-05-08 16:32 37.42338 -5.89787 94 ft 0 kts 314°